,,,PA_Meas_PMT16A,,PR_Meas_QMR101_102,,RH_Meas_QMH101,,SR_Meas_QMS101,,TA_Meas_QMH101,,GenWind,,GenWind,
date,time,status,PA,status,PR,status,RH,status,SR,status,TA,status,DirAvg,status,SpdAvg,
2011-01-18, 00:00:05,VALID,999.594,VALID,0,VALID,89.9609,VALID,0,VALID,23.7597,VALID,106,VALID,0.592578,
2011-01-18, 00:01:05,VALID,999.567,VALID,0,VALID,89.854,VALID,0,VALID,23.7579,VALID,106,VALID,0.484766,
2011-01-18, 00:02:05,VALID,999.569,VALID,0,VALID,89.8617,VALID,0,VALID,23.7793,VALID,91,VALID,0.407031,
2011-01-18, 00:03:05,VALID,999.511,VALID,0,VALID,89.8769,VALID,0,VALID,23.7988,VALID,91,VALID,0.300391,
2011-01-18, 00:04:05,VALID,999.486,VALID,0,VALID,89.8235,VALID,0,VALID,23.7988,VALID,91,VALID,0.0140625,
2011-01-18, 00:05:05,VALID,999.437,VALID,0,VALID,89.7701,VALID,0,VALID,23.7793,VALID,91,VALID,0,
2011-01-18, 00:06:05,VALID,999.432,VALID,0,VALID,89.6862,VALID,0,VALID,23.7597,VALID,91,VALID,0,
2011-01-18, 00:07:05,VALID,999.463,VALID,0,VALID,89.6862,VALID,0,VALID,23.7597,VALID,91,VALID,0,
2011-01-18, 00:08:05,VALID,999.431,VALID,0,VALID,89.7549,VALID,0,VALID,23.7402,VALID,91,VALID,0,
2011-01-18, 00:09:05,VALID,999.436,VALID,0,VALID,89.8311,VALID,0,VALID,23.7402,VALID,91,VALID,0,
2011-01-18, 00:10:05,VALID,999.398,VALID,0,VALID,89.854,VALID,0,VALID,23.7402,VALID,91,VALID,0,
2011-01-18, 00:11:05,VALID,999.398,VALID,0,VALID,89.8922,VALID,0,VALID,23.7207,VALID,91,VALID,0,
2011-01-18, 00:12:05,VALID,999.391,VALID,0,VALID,89.9151,VALID,0,VALID,23.6799,VALID,91,VALID,0,
2011-01-18, 00:13:05,VALID,999.397,VALID,0,VALID,89.9609,VALID,0,VALID,23.6817,VALID,91,VALID,0,
2011-01-18, 00:14:05,VALID,999.371,VALID,0,VALID,90.0371,VALID,0,VALID,23.6622,VALID,91,VALID,0,
2011-01-18, 00:15:05,VALID,999.345,VALID,0,VALID,90.1592,VALID,0,VALID,23.703,VALID,91,VALID,0,
2011-01-18, 00:16:05,VALID,999.352,VALID,0,VALID,90.2431,VALID,0,VALID,23.6817,VALID,91,VALID,0,
2011-01-18, 00:17:05,VALID,999.306,VALID,0,VALID,90.3347,VALID,0,VALID,23.6817,VALID,91,VALID,0,
2011-01-18, 00:18:05,VALID,999.275,VALID,0,VALID,90.3728,VALID,0,VALID,23.6817,VALID,91,VALID,0,
2011-01-18, 00:19:05,VALID,999.266,VALID,0,VALID,90.3881,VALID,0,VALID,23.6622,VALID,91,VALID,0,
2011-01-18, 00:20:05,VALID,999.217,VALID,0,VALID,90.4263,VALID,0,VALID,23.6622,VALID,91,VALID,0,
2011-01-18, 00:21:05,VALID,999.167,VALID,0,VALID,90.3957,VALID,0,VALID,23.6622,VALID,91,VALID,0,
2011-01-18, 00:22:05,VALID,999.152,VALID,0,VALID,90.411,VALID,0,VALID,23.6427,VALID,91,VALID,0,
2011-01-18, 00:23:05,VALID,999.087,VALID,0,VALID,90.3728,VALID,0,VALID,23.6232,VALID,91,VALID,0,
2011-01-18, 00:24:05,VALID,999.061,VALID,0,VALID,90.4568,VALID,0,VALID,23.6427,VALID,91,VALID,0,
2011-01-18, 00:25:05,VALID,999.033,VALID,0,VALID,90.5331,VALID,0,VALID,23.6622,VALID,91,VALID,0.281641,
2011-01-18, 00:26:05,VALID,998.987,VALID,0,VALID,90.5788,VALID,0,VALID,23.6622,VALID,91,VALID,0.179297,
2011-01-18, 00:27:05,VALID,998.967,VALID,0,VALID,90.5712,VALID,0,VALID,23.7012,VALID,91,VALID,0.291016,
2011-01-18, 00:28:05,VALID,998.952,VALID,0,VALID,90.4644,VALID,0,VALID,23.7012,VALID,91,VALID,0.204297,
2011-01-18, 00:29:05,VALID,998.916,VALID,0,VALID,90.3271,VALID,0,VALID,23.6622,VALID,91,VALID,0.157422,
2011-01-18, 00:30:05,VALID,998.911,VALID,0,VALID,90.3042,VALID,0,VALID,23.6427,VALID,91,VALID,0.00351562,
2011-01-18, 00:31:05,VALID,998.899,VALID,0,VALID,90.3957,VALID,0,VALID,23.6622,VALID,91,VALID,0.297266,
2011-01-18, 00:32:05,VALID,998.859,VALID,0,VALID,90.4873,VALID,0,VALID,23.7012,VALID,91,VALID,0.338672,
2011-01-18, 00:33:05,VALID,998.836,VALID,0,VALID,90.3347,VALID,0,VALID,23.7012,VALID,91,VALID,0.322266,
2011-01-18, 00:34:05,VALID,998.84,VALID,0,VALID,89.938,VALID,0,VALID,23.7402,VALID,147,VALID,0.767578,
2011-01-18, 00:35:05,VALID,998.816,VALID,0,VALID,89.3734,VALID,0,VALID,23.7793,VALID,138,VALID,0.758203,
2011-01-18, 00:36:05,VALID,998.787,VALID,0,VALID,88.7554,VALID,0,VALID,23.8396,VALID,138,VALID,0.608203,
2011-01-18, 00:37:05,VALID,998.768,VALID,0,VALID,88.29,VALID,0,VALID,23.8573,VALID,138,VALID,0.571094,
2011-01-18, 00:38:05,VALID,998.742,VALID,0,VALID,88.0153,VALID,0,VALID,23.8555,VALID,138,VALID,0.528516,
2011-01-18, 00:39:05,VALID,998.751,VALID,0,VALID,87.8169,VALID,0,VALID,23.836,VALID,138,VALID,0.599609,
2011-01-18, 00:40:05,VALID,998.726,VALID,0,VALID,87.9771,VALID,0,VALID,23.8768,VALID,138,VALID,0.463281,
2011-01-18, 00:41:05,VALID,998.699,VALID,0,VALID,87.9771,VALID,0,VALID,23.8768,VALID,138,VALID,0.357031,
2011-01-18, 00:42:05,VALID,998.698,VALID,0,VALID,88.0229,VALID,0,VALID,23.8768,VALID,138,VALID,0.230078,
2011-01-18, 00:43:05,VALID,998.69,VALID,0,VALID,87.8474,VALID,0,VALID,23.8378,VALID,138,VALID,0.241016,
2011-01-18, 00:44:05,VALID,998.674,VALID,0,VALID,88.0916,VALID,0,VALID,23.8183,VALID,138,VALID,0.199219,
2011-01-18, 00:45:05,VALID,998.64,VALID,0,VALID,88.2594,VALID,0,VALID,23.7597,VALID,138,VALID,0.154297,
2011-01-18, 00:46:05,VALID,998.608,VALID,0,VALID,88.5494,VALID,0,VALID,23.7207,VALID,138,VALID,0.366406,
2011-01-18, 00:47:05,VALID,998.623,VALID,0,VALID,88.8927,VALID,0,VALID,23.6817,VALID,110,VALID,0.539063,
2011-01-18, 00:48:05,VALID,998.593,VALID,0,VALID,89.1368,VALID,0,VALID,23.6622,VALID,93,VALID,0.355078,
2011-01-18, 00:49:05,VALID,998.542,VALID,0,VALID,89.4497,VALID,0,VALID,23.6835,VALID,93,VALID,0.450391,
2011-01-18, 00:50:05,VALID,998.528,VALID,0,VALID,89.6862,VALID,0,VALID,23.6817,VALID,93,VALID,0.528516,
2011-01-18, 00:51:05,VALID,998.513,VALID,0,VALID,89.7854,VALID,0,VALID,23.6817,VALID,93,VALID,0.528906,
2011-01-18, 00:52:05,VALID,998.548,VALID,0,VALID,89.8693,VALID,0,VALID,23.6817,VALID,93,VALID,0.541406,
2011-01-18, 00:53:05,VALID,998.572,VALID,0,VALID,89.8769,VALID,0,VALID,23.6817,VALID,93,VALID,0.398828,
2011-01-18, 00:54:05,VALID,998.577,VALID,0,VALID,89.9456,VALID,0,VALID,23.6817,VALID,93,VALID,0.23125,
2011-01-18, 00:55:05,VALID,998.575,VALID,0,VALID,89.9837,VALID,0,VALID,23.6817,VALID,93,VALID,0.34375,
2011-01-18, 00:56:05,VALID,998.573,VALID,0,VALID,89.9914,VALID,0,VALID,23.6622,VALID,93,VALID,0.312109,
2011-01-18, 00:57:05,VALID,998.594,VALID,0,VALID,89.8846,VALID,0,VALID,23.6427,VALID,41,VALID,0.709375,
2011-01-18, 00:58:05,VALID,998.574,VALID,0,VALID,89.854,VALID,0,VALID,23.5841,VALID,41,VALID,0.84375,
2011-01-18, 00:59:05,VALID,998.597,VALID,0,VALID,90.0753,VALID,0,VALID,23.5646,VALID,41,VALID,0.782422,
2011-01-18, 01:00:05,VALID,998.56,VALID,0,VALID,90.1745,VALID,0,VALID,23.5256,VALID,31,VALID,0.984766,
2011-01-18, 01:01:05,VALID,998.562,VALID,0,VALID,90.3042,VALID,0,VALID,23.4866,VALID,31,VALID,0.982031,
2011-01-18, 01:02:05,VALID,998.548,VALID,0,VALID,90.266,VALID,0,VALID,23.4085,VALID,23,VALID,0.977734,
2011-01-18, 01:03:05,VALID,998.547,VALID,0,VALID,90.3423,VALID,0.112286,VALID,23.35,VALID,23,VALID,0.892578,
2011-01-18, 01:04:05,VALID,998.528,VALID,0,VALID,90.4339,VALID,0,VALID,23.2897,VALID,23,VALID,0.691016,
2011-01-18, 01:05:05,VALID,998.533,VALID,0,VALID,90.5331,VALID,0,VALID,23.2915,VALID,23,VALID,0.678516,
2011-01-18, 01:06:05,VALID,998.518,VALID,0,VALID,90.7162,VALID,0,VALID,23.2719,VALID,31,VALID,0.610156,
2011-01-18, 01:07:05,VALID,998.511,VALID,0,VALID,90.9374,VALID,0,VALID,23.2719,VALID,31,VALID,0.626562,
2011-01-18, 01:08:05,VALID,998.544,VALID,0,VALID,90.9909,VALID,0,VALID,23.2329,VALID,31,VALID,0.358984,
2011-01-18, 01:09:05,VALID,998.553,VALID,0,VALID,91.0137,VALID,0,VALID,23.1939,VALID,31,VALID,0.376172,
2011-01-18, 01:10:05,VALID,998.544,VALID,0,VALID,91.1206,VALID,0,VALID,23.2152,VALID,31,VALID,0.318359,
2011-01-18, 01:11:05,VALID,998.559,VALID,0,VALID,91.2274,VALID,0,VALID,23.1744,VALID,31,VALID,0.382422,
2011-01-18, 01:12:05,VALID,998.556,VALID,0,VALID,91.3571,VALID,0,VALID,23.1744,VALID,31,VALID,0.313672,
2011-01-18, 01:13:05,VALID,998.574,VALID,0,VALID,91.4868,VALID,0,VALID,23.2134,VALID,31,VALID,0.232812,
2011-01-18, 01:14:05,VALID,998.581,VALID,0,VALID,91.6241,VALID,0,VALID,23.2329,VALID,31,VALID,0.256641,
2011-01-18, 01:15:05,VALID,998.558,VALID,0,VALID,91.7004,VALID,0,VALID,23.2329,VALID,31,VALID,0.176953,
2011-01-18, 01:16:05,VALID,998.57,VALID,0,VALID,91.7767,VALID,0,VALID,23.2329,VALID,31,VALID,0.198828,
2011-01-18, 01:17:04,VALID,998.537,VALID,0,VALID,91.8225,VALID,0,VALID,23.2524,VALID,31,VALID,0.283594,
2011-01-18, 01:18:04,VALID,998.533,VALID,0,VALID,91.8683,VALID,0,VALID,23.2719,VALID,31,VALID,0.24375,
2011-01-18, 01:19:04,VALID,998.529,VALID,0,VALID,91.8759,VALID,0,VALID,23.2719,VALID,31,VALID,0.229297,
2011-01-18, 01:20:04,VALID,998.535,VALID,0,VALID,91.8759,VALID,0,VALID,23.2524,VALID,31,VALID,0.358203,
2011-01-18, 01:21:04,VALID,998.542,VALID,0,VALID,91.8835,VALID,0,VALID,23.2329,VALID,31,VALID,0.188672,
2011-01-18, 01:22:04,VALID,998.542,VALID,0,VALID,91.8301,VALID,0,VALID,23.2329,VALID,31,VALID,0.158203,
2011-01-18, 01:23:04,VALID,998.531,VALID,0,VALID,91.7843,VALID,0,VALID,23.2134,VALID,31,VALID,0.170703,
2011-01-18, 01:24:04,VALID,998.54,VALID,0,VALID,91.7538,VALID,0,VALID,23.1921,VALID,31,VALID,0.136719,
2011-01-18, 01:25:04,VALID,998.522,VALID,0,VALID,91.7309,VALID,0,VALID,23.1939,VALID,31,VALID,0.222656,
2011-01-18, 01:26:04,VALID,998.528,VALID,0,VALID,91.7004,VALID,0,VALID,23.1939,VALID,31,VALID,0.161328,
2011-01-18, 01:27:04,VALID,998.514,VALID,0,VALID,91.708,VALID,0,VALID,23.1726,VALID,31,VALID,0.189844,
2011-01-18, 01:28:04,VALID,998.526,VALID,0,VALID,91.7385,VALID,0,VALID,23.1744,VALID,31,VALID,0,
2011-01-18, 01:29:04,VALID,998.523,VALID,0,VALID,91.792,VALID,0,VALID,23.2134,VALID,31,VALID,0,
2011-01-18, 01:30:04,VALID,998.515,VALID,0,VALID,91.7996,VALID,0,VALID,23.1939,VALID,31,VALID,0,
2011-01-18, 01:31:04,VALID,998.497,VALID,0,VALID,91.8377,VALID,0,VALID,23.2134,VALID,31,VALID,0.237891,
2011-01-18, 01:32:04,VALID,998.513,VALID,0,VALID,91.853,VALID,0,VALID,23.2134,VALID,67,VALID,0.576953,
2011-01-18, 01:33:04,VALID,998.458,VALID,0,VALID,91.7843,VALID,0,VALID,23.2134,VALID,118,VALID,0.526563,
2011-01-18, 01:34:04,VALID,998.498,VALID,0,VALID,91.6546,VALID,0,VALID,23.2312,VALID,118,VALID,0.643359,
2011-01-18, 01:35:04,VALID,998.485,VALID,0,VALID,91.4868,VALID,0,VALID,23.2915,VALID,118,VALID,0.455469,
2011-01-18, 01:36:04,VALID,998.498,VALID,0,VALID,91.296,VALID,0,VALID,23.3305,VALID,118,VALID,0.356641,
2011-01-18, 01:37:04,VALID,998.501,VALID,0,VALID,91.0824,VALID,0,VALID,23.3695,VALID,118,VALID,0.307813,
2011-01-18, 01:38:04,VALID,998.509,VALID,0,VALID,90.7849,VALID,0,VALID,23.389,VALID,118,VALID,0.330469,
2011-01-18, 01:39:04,VALID,998.508,VALID,0,VALID,90.5178,VALID,0,VALID,23.389,VALID,118,VALID,0.305078,
2011-01-18, 01:40:04,VALID,998.503,VALID,0,VALID,90.2889,VALID,0,VALID,23.389,VALID,118,VALID,0.155469,
2011-01-18, 01:41:04,VALID,998.511,VALID,0,VALID,90.1668,VALID,0,VALID,23.389,VALID,118,VALID,0.0351563,
2011-01-18, 01:42:04,VALID,998.475,VALID,0,VALID,90.1287,VALID,0,VALID,23.3677,VALID,118,VALID,0,
2011-01-18, 01:43:04,VALID,998.483,VALID,0,VALID,90.1516,VALID,0.112286,VALID,23.389,VALID,118,VALID,0,
2011-01-18, 01:44:04,VALID,998.472,VALID,0,VALID,90.1516,VALID,0,VALID,23.4085,VALID,118,VALID,0,
2011-01-18, 01:45:04,VALID,998.442,VALID,0,VALID,90.1516,VALID,0,VALID,23.4085,VALID,123,VALID,0.291797,
2011-01-18, 01:46:04,VALID,998.436,VALID,0,VALID,90.1058,VALID,0,VALID,23.428,VALID,125,VALID,0.560547,
2011-01-18, 01:47:04,VALID,998.404,VALID,0,VALID,90.0982,VALID,0,VALID,23.4475,VALID,131,VALID,0.753125,
2011-01-18, 01:48:04,VALID,998.389,VALID,0,VALID,90.0753,VALID,0,VALID,23.4866,VALID,137,VALID,0.660937,
2011-01-18, 01:49:04,VALID,998.371,VALID,0,VALID,89.9914,VALID,0,VALID,23.5043,VALID,137,VALID,0.626562,
2011-01-18, 01:50:04,VALID,998.375,VALID,0,VALID,89.8693,VALID,0,VALID,23.5646,VALID,137,VALID,0.335938,
2011-01-18, 01:51:04,VALID,998.322,VALID,0,VALID,89.7014,VALID,0.112286,VALID,23.5628,VALID,137,VALID,0.217187,
2011-01-18, 01:52:04,VALID,998.282,VALID,0,VALID,89.5412,VALID,0,VALID,23.5841,VALID,137,VALID,0,
2011-01-18, 01:53:04,VALID,998.254,VALID,0,VALID,89.4115,VALID,0,VALID,23.6036,VALID,137,VALID,0.176953,
2011-01-18, 01:54:04,VALID,998.22,VALID,0,VALID,89.3352,VALID,0,VALID,23.5841,VALID,137,VALID,0.285156,
2011-01-18, 01:55:04,VALID,998.205,VALID,0,VALID,89.2208,VALID,0,VALID,23.6036,VALID,137,VALID,0.267969,
2011-01-18, 01:56:04,VALID,998.14,VALID,0,VALID,88.9766,VALID,0,VALID,23.6232,VALID,137,VALID,0.237891,
2011-01-18, 01:57:04,VALID,998.139,VALID,0,VALID,88.8164,VALID,0,VALID,23.6036,VALID,137,VALID,0.382422,
2011-01-18, 01:58:04,VALID,998.122,VALID,0,VALID,88.7706,VALID,0,VALID,23.6232,VALID,137,VALID,0.210156,
2011-01-18, 01:59:04,VALID,998.11,VALID,0,VALID,88.7783,VALID,0,VALID,23.5841,VALID,137,VALID,0,
2011-01-18, 02:00:04,VALID,998.134,VALID,0,VALID,88.7935,VALID,0,VALID,23.5841,VALID,137,VALID,0,
2011-01-18, 02:01:04,VALID,998.128,VALID,0,VALID,88.8469,VALID,0,VALID,23.5451,VALID,137,VALID,0,
2011-01-18, 02:02:04,VALID,998.15,VALID,0,VALID,88.9461,VALID,0,VALID,23.5274,VALID,137,VALID,0,
2011-01-18, 02:03:04,VALID,998.132,VALID,0,VALID,89.0148,VALID,0,VALID,23.4866,VALID,137,VALID,0,
2011-01-18, 02:04:04,VALID,998.116,VALID,0,VALID,89.1597,VALID,0,VALID,23.4866,VALID,137,VALID,0,
2011-01-18, 02:05:04,VALID,998.086,VALID,0,VALID,89.3352,VALID,0,VALID,23.4671,VALID,137,VALID,0,
2011-01-18, 02:06:04,VALID,998.087,VALID,0,VALID,89.4878,VALID,0,VALID,23.4475,VALID,137,VALID,0,
2011-01-18, 02:07:04,VALID,998.051,VALID,0,VALID,89.587,VALID,0,VALID,23.4085,VALID,137,VALID,0,
2011-01-18, 02:08:04,VALID,998.048,VALID,0,VALID,89.6709,VALID,0,VALID,23.389,VALID,137,VALID,0,
2011-01-18, 02:09:04,VALID,998.032,VALID,0,VALID,89.8159,VALID,0,VALID,23.3482,VALID,137,VALID,0,
2011-01-18, 02:10:04,VALID,998.038,VALID,0,VALID,89.9151,VALID,0,VALID,23.3305,VALID,137,VALID,0,
2011-01-18, 02:11:04,VALID,998.027,VALID,0,VALID,90.1363,VALID,0,VALID,23.3305,VALID,137,VALID,0.504297,
2011-01-18, 02:12:04,VALID,998.032,VALID,0,VALID,90.2355,VALID,0,VALID,23.35,VALID,137,VALID,0.554297,
2011-01-18, 02:13:04,VALID,998.05,VALID,0,VALID,90.3347,VALID,0,VALID,23.4085,VALID,137,VALID,0.485547,
2011-01-18, 02:14:04,VALID,998.04,VALID,0,VALID,90.3423,VALID,0,VALID,23.4067,VALID,137,VALID,0.330469,
2011-01-18, 02:15:04,VALID,998.047,VALID,0,VALID,90.35,VALID,0,VALID,23.428,VALID,137,VALID,0.208984,
2011-01-18, 02:16:04,VALID,998.051,VALID,0,VALID,90.3271,VALID,0,VALID,23.428,VALID,137,VALID,0.238672,
2011-01-18, 02:17:04,VALID,998.031,VALID,0,VALID,90.411,VALID,0,VALID,23.4475,VALID,137,VALID,0,
2011-01-18, 02:18:04,VALID,997.958,VALID,0,VALID,90.4263,VALID,0,VALID,23.4263,VALID,137,VALID,0,
2011-01-18, 02:19:04,VALID,997.959,VALID,0,VALID,90.4949,VALID,0,VALID,23.4475,VALID,137,VALID,0,
2011-01-18, 02:20:04,VALID,997.898,VALID,0,VALID,90.5178,VALID,0,VALID,23.4475,VALID,137,VALID,0,
2011-01-18, 02:21:04,VALID,997.906,VALID,0,VALID,90.5483,VALID,0,VALID,23.428,VALID,137,VALID,0,
2011-01-18, 02:22:04,VALID,997.851,VALID,0,VALID,90.556,VALID,0,VALID,23.3872,VALID,137,VALID,0,
2011-01-18, 02:23:04,VALID,997.84,VALID,0,VALID,90.556,VALID,0,VALID,23.389,VALID,137,VALID,0,
2011-01-18, 02:24:04,VALID,997.813,VALID,0,VALID,90.5483,VALID,0,VALID,23.3695,VALID,137,VALID,0,
2011-01-18, 02:25:04,VALID,997.791,VALID,0,VALID,90.617,VALID,0,VALID,23.35,VALID,137,VALID,0,
2011-01-18, 02:26:04,VALID,997.768,VALID,0,VALID,90.7009,VALID,0,VALID,23.35,VALID,137,VALID,0,
2011-01-18, 02:27:04,VALID,997.751,VALID,0,VALID,90.7925,VALID,0,VALID,23.35,VALID,137,VALID,0,
2011-01-18, 02:28:04,VALID,997.725,VALID,0,VALID,90.8611,VALID,0,VALID,23.3287,VALID,137,VALID,0,
2011-01-18, 02:29:04,VALID,997.7,VALID,0,VALID,90.9069,VALID,0,VALID,23.3305,VALID,137,VALID,0,
2011-01-18, 02:30:04,VALID,997.688,VALID,0,VALID,90.9069,VALID,0,VALID,23.3305,VALID,137,VALID,0,
2011-01-18, 02:31:04,VALID,997.688,VALID,0,VALID,90.9374,VALID,0,VALID,23.3092,VALID,137,VALID,0,
2011-01-18, 02:32:04,VALID,997.671,VALID,0,VALID,90.9832,VALID,0,VALID,23.311,VALID,137,VALID,0,
2011-01-18, 02:33:04,VALID,997.671,VALID,0,VALID,91.0519,VALID,0,VALID,23.311,VALID,137,VALID,0,
2011-01-18, 02:34:04,VALID,997.651,VALID,0,VALID,91.1206,VALID,0,VALID,23.311,VALID,137,VALID,0,
2011-01-18, 02:35:04,VALID,997.65,VALID,0,VALID,91.1663,VALID,0,VALID,23.2897,VALID,137,VALID,0,
2011-01-18, 02:36:04,VALID,997.654,VALID,0,VALID,91.2274,VALID,0,VALID,23.2897,VALID,137,VALID,0,
2011-01-18, 02:37:04,VALID,997.667,VALID,0,VALID,91.2503,VALID,0,VALID,23.3092,VALID,137,VALID,0,
2011-01-18, 02:38:04,VALID,997.654,VALID,0,VALID,91.2197,VALID,0,VALID,23.3092,VALID,137,VALID,0,
2011-01-18, 02:39:04,VALID,997.658,VALID,0,VALID,91.2121,VALID,0,VALID,23.311,VALID,137,VALID,0,
2011-01-18, 02:40:04,VALID,997.651,VALID,0,VALID,91.2197,VALID,0.112286,VALID,23.311,VALID,137,VALID,0,
2011-01-18, 02:41:04,VALID,997.635,VALID,0,VALID,91.2655,VALID,0,VALID,23.2897,VALID,137,VALID,0,
2011-01-18, 02:42:04,VALID,997.648,VALID,0,VALID,91.3113,VALID,0,VALID,23.311,VALID,137,VALID,0,
2011-01-18, 02:43:04,VALID,997.631,VALID,0,VALID,91.3266,VALID,0,VALID,23.311,VALID,137,VALID,0,
2011-01-18, 02:44:04,VALID,997.672,VALID,0,VALID,91.3418,VALID,0,VALID,23.2897,VALID,137,VALID,0,
2011-01-18, 02:45:04,VALID,997.676,VALID,0,VALID,91.3571,VALID,0,VALID,23.2915,VALID,137,VALID,0,
2011-01-18, 02:46:04,VALID,997.716,VALID,0,VALID,91.4028,VALID,0,VALID,23.2719,VALID,137,VALID,0,
2011-01-18, 02:47:04,VALID,997.752,VALID,0,VALID,91.4028,VALID,0,VALID,23.2719,VALID,137,VALID,0,
2011-01-18, 02:48:04,VALID,997.752,VALID,0,VALID,91.4028,VALID,0.112286,VALID,23.2312,VALID,137,VALID,0,
2011-01-18, 02:49:04,VALID,997.767,VALID,0,VALID,91.4257,VALID,0,VALID,23.2329,VALID,137,VALID,0,
2011-01-18, 02:50:04,VALID,997.73,VALID,0,VALID,91.4944,VALID,0,VALID,23.2329,VALID,137,VALID,0,
2011-01-18, 02:51:04,VALID,997.75,VALID,0,VALID,91.5936,VALID,0,VALID,23.2117,VALID,137,VALID,0,
2011-01-18, 02:52:04,VALID,997.732,VALID,0,VALID,91.6775,VALID,0,VALID,23.2329,VALID,137,VALID,0,
2011-01-18, 02:53:04,VALID,997.788,VALID,0,VALID,91.7385,VALID,0,VALID,23.2329,VALID,137,VALID,0,
2011-01-18, 02:54:04,VALID,997.748,VALID,0,VALID,91.7767,VALID,0,VALID,23.1939,VALID,137,VALID,0,
2011-01-18, 02:55:04,VALID,997.729,VALID,0,VALID,91.8148,VALID,0,VALID,23.1939,VALID,137,VALID,0,
2011-01-18, 02:56:04,VALID,997.772,VALID,0,VALID,91.8759,VALID,0,VALID,23.1744,VALID,137,VALID,0,
2011-01-18, 02:57:04,VALID,997.764,VALID,0,VALID,91.8911,VALID,0,VALID,23.1531,VALID,137,VALID,0,
2011-01-18, 02:58:04,VALID,997.765,VALID,0,VALID,91.9217,VALID,0,VALID,23.1531,VALID,137,VALID,0,
2011-01-18, 02:59:04,VALID,997.767,VALID,0,VALID,91.9445,VALID,0,VALID,23.1549,VALID,137,VALID,0,
2011-01-18, 03:00:04,VALID,997.77,VALID,0,VALID,91.9369,VALID,0,VALID,23.1549,VALID,137,VALID,0,
2011-01-18, 03:01:04,VALID,997.805,VALID,0,VALID,91.9751,VALID,0,VALID,23.1744,VALID,137,VALID,0,
2011-01-18, 03:02:04,VALID,997.793,VALID,0,VALID,91.9827,VALID,0,VALID,23.1939,VALID,137,VALID,0,
2011-01-18, 03:03:04,VALID,997.805,VALID,0,VALID,91.9903,VALID,0,VALID,23.1939,VALID,137,VALID,0,
2011-01-18, 03:04:04,VALID,997.796,VALID,0,VALID,91.998,VALID,0,VALID,23.2134,VALID,137,VALID,0,
2011-01-18, 03:05:04,VALID,997.835,VALID,0,VALID,92.0056,VALID,0,VALID,23.2329,VALID,137,VALID,0,
2011-01-18, 03:06:04,VALID,997.817,VALID,0,VALID,91.9827,VALID,0,VALID,23.2329,VALID,137,VALID,0,
2011-01-18, 03:07:04,VALID,997.842,VALID,0,VALID,91.998,VALID,0,VALID,23.2329,VALID,137,VALID,0,
2011-01-18, 03:08:04,VALID,997.829,VALID,0,VALID,91.998,VALID,0,VALID,23.2312,VALID,137,VALID,0,
2011-01-18, 03:09:04,VALID,997.816,VALID,0,VALID,91.9674,VALID,0,VALID,23.2329,VALID,137,VALID,0,
2011-01-18, 03:10:04,VALID,997.837,VALID,0,VALID,91.9827,VALID,0,VALID,23.2312,VALID,137,VALID,0,
2011-01-18, 03:11:04,VALID,997.865,VALID,0,VALID,91.9445,VALID,0,VALID,23.2329,VALID,137,VALID,0,
2011-01-18, 03:12:04,VALID,997.87,VALID,0,VALID,91.9217,VALID,0,VALID,23.2329,VALID,137,VALID,0,
2011-01-18, 03:13:04,VALID,997.852,VALID,0,VALID,91.8911,VALID,0,VALID,23.1939,VALID,137,VALID,0,
2011-01-18, 03:14:04,VALID,997.889,VALID,0,VALID,91.8606,VALID,0,VALID,23.1531,VALID,102,VALID,0,
2011-01-18, 03:15:04,VALID,997.899,VALID,0,VALID,91.8454,VALID,0,VALID,23.1549,VALID,60,VALID,0,
2011-01-18, 03:16:04,VALID,997.912,VALID,0,VALID,91.8072,VALID,0,VALID,23.1549,VALID,59,VALID,0,
2011-01-18, 03:17:04,VALID,997.919,VALID,0,VALID,91.8225,VALID,0,VALID,23.1744,VALID,59,VALID,0,
2011-01-18, 03:18:04,VALID,997.92,VALID,0,VALID,91.7614,VALID,0,VALID,23.1744,VALID,59,VALID,0,
2011-01-18, 03:19:04,VALID,997.942,VALID,0,VALID,91.7462,VALID,0,VALID,23.1549,VALID,59,VALID,0,
2011-01-18, 03:20:04,VALID,997.986,VALID,0,VALID,91.6699,VALID,0,VALID,23.1354,VALID,59,VALID,0,
2011-01-18, 03:21:04,VALID,997.971,VALID,0,VALID,91.6317,VALID,0,VALID,23.1159,VALID,59,VALID,0,
2011-01-18, 03:22:04,VALID,997.96,VALID,0,VALID,91.6394,VALID,0,VALID,23.0751,VALID,59,VALID,0,
2011-01-18, 03:23:04,VALID,997.941,VALID,0,VALID,91.6317,VALID,0,VALID,23.1159,VALID,59,VALID,0,
2011-01-18, 03:24:04,VALID,997.954,VALID,0,VALID,91.6546,VALID,0,VALID,23.0964,VALID,59,VALID,0,
2011-01-18, 03:25:04,VALID,997.932,VALID,0,VALID,91.6165,VALID,0,VALID,23.0573,VALID,59,VALID,0,
2011-01-18, 03:26:04,VALID,997.995,VALID,0,VALID,91.6546,VALID,0,VALID,23.0166,VALID,59,VALID,0,
2011-01-18, 03:27:04,VALID,997.995,VALID,0,VALID,91.6623,VALID,0,VALID,23.0378,VALID,59,VALID,0,
2011-01-18, 03:28:04,VALID,997.989,VALID,0,VALID,91.7004,VALID,0,VALID,23.0166,VALID,59,VALID,0,
2011-01-18, 03:29:04,VALID,997.983,VALID,0,VALID,91.7614,VALID,0,VALID,23.0378,VALID,59,VALID,0,
2011-01-18, 03:30:04,VALID,998.029,VALID,0,VALID,91.7996,VALID,0,VALID,23.0378,VALID,59,VALID,0,
2011-01-18, 03:31:04,VALID,998.028,VALID,0,VALID,91.8759,VALID,0,VALID,23.0166,VALID,59,VALID,0,
2011-01-18, 03:32:04,VALID,998.055,VALID,0,VALID,91.914,VALID,0,VALID,23.0378,VALID,59,VALID,0,
2011-01-18, 03:33:04,VALID,998.065,VALID,0,VALID,91.9751,VALID,0,VALID,23.0378,VALID,59,VALID,0,
2011-01-18, 03:34:04,VALID,998.064,VALID,0,VALID,92.0361,VALID,0,VALID,23.0573,VALID,59,VALID,0,
2011-01-18, 03:35:04,VALID,998.083,VALID,0,VALID,92.0666,VALID,0,VALID,23.0573,VALID,59,VALID,0,
2011-01-18, 03:36:04,VALID,998.091,VALID,0,VALID,92.1048,VALID,0,VALID,23.0573,VALID,59,VALID,0,
2011-01-18, 03:37:04,VALID,998.147,VALID,0,VALID,92.1429,VALID,0,VALID,23.0556,VALID,59,VALID,0,
2011-01-18, 03:38:04,VALID,998.139,VALID,0,VALID,92.1582,VALID,0,VALID,23.0573,VALID,59,VALID,0,
2011-01-18, 03:39:04,VALID,998.159,VALID,0,VALID,92.1963,VALID,0.112286,VALID,23.0573,VALID,59,VALID,0,
2011-01-18, 03:40:04,VALID,998.153,VALID,0,VALID,92.204,VALID,0,VALID,23.0573,VALID,59,VALID,0,
2011-01-18, 03:41:04,VALID,998.194,VALID,0,VALID,92.2116,VALID,0,VALID,23.0361,VALID,59,VALID,0,
2011-01-18, 03:42:04,VALID,998.164,VALID,0,VALID,92.2574,VALID,0,VALID,23.0573,VALID,59,VALID,0,
2011-01-18, 03:43:04,VALID,998.169,VALID,0,VALID,92.265,VALID,0,VALID,23.0573,VALID,59,VALID,0,
2011-01-18, 03:44:04,VALID,998.167,VALID,0,VALID,92.2879,VALID,0,VALID,23.0378,VALID,59,VALID,0,
2011-01-18, 03:45:04,VALID,998.186,VALID,0,VALID,92.2497,VALID,0,VALID,23.0378,VALID,59,VALID,0,
2011-01-18, 03:46:04,VALID,998.202,VALID,0,VALID,92.2574,VALID,0,VALID,22.9988,VALID,59,VALID,0,
2011-01-18, 03:47:04,VALID,998.196,VALID,0,VALID,92.2497,VALID,0,VALID,22.9988,VALID,59,VALID,0,
2011-01-18, 03:48:04,VALID,998.198,VALID,0,VALID,92.2497,VALID,0,VALID,22.9971,VALID,59,VALID,0,
2011-01-18, 03:49:04,VALID,998.187,VALID,0,VALID,92.2803,VALID,0,VALID,22.9988,VALID,59,VALID,0,
2011-01-18, 03:50:04,VALID,998.208,VALID,0,VALID,92.2726,VALID,0,VALID,22.9793,VALID,59,VALID,0,
2011-01-18, 03:51:04,VALID,998.192,VALID,0,VALID,92.2497,VALID,0,VALID,22.9598,VALID,59,VALID,0,
2011-01-18, 03:52:04,VALID,998.207,VALID,0,VALID,92.2726,VALID,0,VALID,22.9403,VALID,59,VALID,0,
2011-01-18, 03:53:04,VALID,998.18,VALID,0,VALID,92.2497,VALID,0,VALID,22.9403,VALID,59,VALID,0,
2011-01-18, 03:54:04,VALID,998.217,VALID,0,VALID,92.2803,VALID,0,VALID,22.9403,VALID,59,VALID,0,